sat.trackr.live / text

‹ back to catalog

STARLINK-11677 [DTC]

NORAD 63751 · 2025-089A

PAYLOAD ACTIVE UNKNOWN

§ Identity

Operator
Country
US
Launch date
2025-04-29
Launch site
AFETR
Launch vehicle
Mass (kg)
RCS (m²)

Purposes: comms

External: N2YO · Heavens-Above · Gunter

§ Orbital elements

Epoch: 2026-05-25T03:03:21.374208Z

Period
91.66 min
Inclination
43.0007°
Eccentricity
0.0001612
Mean motion
15.70954705 rev/d
Perigee alt
355.1 km
Apogee alt
357.3 km
Semi-major
6,734.3 km
B*
1.7604e-3
RAAN
191.8193°
Arg perigee
237.0736°
Mean anomaly
122.9977°
Rev number
6,215

§ Raw data

STARLINK-11677 [DTC]1 63751U 25089A   26145.12733072  .00233006  00000+0  17604-2 0  99922 63751  43.0007 191.8193 0001612 237.0736 122.9977 15.70954705 62152

JSON: /api/v1/satellites/63751 · /tle

For live sub-satellite position, see the globe view (requires WebGL).

§ Visibility from observer

Set your observer location to see the next 7 days of passes ≥ 10°. The values pass through the URL so the page stays shareable.

No JS? Fill the form by hand. The geolocation button needs JavaScript.